| time (UTC) | temp C | wind direction | speed KPH | gust KPH | rain 1hr cm | rain 24hr cm | rain mn cm | humidity % | barometer mb |
| 20260902053733 | 15 | 138 | 1.6 | 19.3 | 0.00 | 0.05 | 0.05 | 86 | 1011.3 |
| 20260902053220 | 15 | 205 | 0.0 | 19.3 | 0.00 | 0.05 | 0.05 | 86 | 1011.4 |
| 20260902052707 | 15 | 280 | 6.4 | 19.3 | 0.00 | 0.05 | 0.05 | 86 | 1011.4 |
| 20260902052154 | 15 | 182 | 9.7 | 19.3 | 0.00 | 0.05 | 0.05 | 86 | 1011.5 |
| 20260902051641 | 15 | 224 | 0.0 | 19.3 | 0.00 | 0.05 | 0.05 | 86 | 1011.5 |
| 20260902051128 | 15 | 210 | 0.0 | 16.1 | 0.00 | 0.05 | 0.05 | 87 | 1011.5 |
| 20260902050615 | 15 | 193 | 4.8 | 11.3 | 0.00 | 0.05 | 0.05 | 87 | 1011.4 |
| 20260902045549 | 15 | 0 | 0.0 | 22.5 | 0.00 | 0.05 | 0.05 | 87 | 1011.5 |
| 20260902045036 | 15 | 238 | 6.4 | 22.5 | 0.00 | 0.05 | 0.05 | 87 | 1011.6 |
| 20260902044523 | 15 | 0 | 0.0 | 16.1 | 0.00 | 0.05 | 0.05 | 87 | 1011.7 |
| 20260902044010 | 15 | 205 | 11.3 | 20.9 | 0.00 | 0.05 | 0.05 | 87 | 1011.7 |
| 20260902043456 | 15 | 235 | 1.6 | 20.9 | 0.00 | 0.05 | 0.05 | 87 | 1011.8 |
| 20260902042943 | 15 | 239 | 3.2 | 20.9 | 0.00 | 0.05 | 0.05 | 87 | 1011.7 |
| 20260902042430 | 15 | 169 | 1.6 | 17.7 | 0.00 | 0.05 | 0.05 | 87 | 1011.7 |
| 20260902041917 | 15 | 179 | 3.2 | 17.7 | 0.00 | 0.05 | 0.05 | 88 | 1011.7 |
| 20260902041404 | 15 | 232 | 4.8 | 14.5 | 0.00 | 0.05 | 0.05 | 88 | 1011.7 |
| 20260902040851 | 15 | 149 | 1.6 | 14.5 | 0.00 | 0.05 | 0.05 | 88 | 1011.6 |
| 20260902035312 | 15 | 198 | 4.8 | 24.1 | 0.00 | 0.05 | 0.05 | 89 | 1011.6 |
| 20260902034759 | 14 | 163 | 4.8 | 17.7 | 0.00 | 0.05 | 0.05 | 89 | 1011.7 |
| 20260902034246 | 15 | 112 | 4.8 | 17.7 | 0.00 | 0.05 | 0.05 | 89 | 1011.6 |
| 20260902033733 | 15 | 159 | 1.6 | 24.1 | 0.00 | 0.05 | 0.05 | 89 | 1011.7 |
| 20260902033221 | 15 | 263 | 4.8 | 24.1 | 0.00 | 0.05 | 0.05 | 89 | 1011.6 |
| 20260902032707 | 15 | 221 | 9.7 | 24.1 | 0.00 | 0.05 | 0.05 | 89 | 1011.7 |
| 20260902032154 | 15 | 239 | 0.0 | 22.5 | 0.00 | 0.05 | 0.05 | 89 | 1011.6 |
| 20260902031641 | 15 | 239 | 1.6 | 29.0 | 0.00 | 0.05 | 0.05 | 89 | 1011.6 |
| 20260902031128 | 15 | 296 | 12.9 | 29.0 | 0.00 | 0.05 | 0.05 | 89 | 1011.6 |
| 20260902030615 | 14 | 273 | 0.0 | 29.0 | 0.00 | 0.05 | 0.05 | 89 | 1011.6 |
| 20260902025549 | 15 | 221 | 11.3 | 25.7 | 0.00 | 0.05 | 0.05 | 89 | 1011.6 |
| 20260902024524 | 15 | 317 | 8.0 | 25.7 | 0.00 | 0.05 | 0.05 | 89 | 1011.7 |
| 20260902024010 | 15 | 134 | 11.3 | 25.7 | 0.00 | 0.05 | 0.05 | 89 | 1011.7 |
| 20260902023457 | 15 | 183 | 4.8 | 22.5 | 0.00 | 0.05 | 0.05 | 89 | 1011.7 |
| 20260902022945 | 15 | 282 | 0.0 | 22.5 | 0.00 | 0.05 | 0.05 | 89 | 1011.7 |
| 20260902022432 | 15 | 173 | 6.4 | 22.5 | 0.00 | 0.05 | 0.05 | 89 | 1011.7 |
| 20260902021919 | 15 | 253 | 4.8 | 19.3 | 0.00 | 0.05 | 0.05 | 88 | 1011.6 |
| 20260902021406 | 15 | 107 | 0.0 | 19.3 | 0.00 | 0.05 | 0.05 | 88 | 1011.6 |
| 20260902020853 | 15 | 267 | 8.0 | 19.3 | 0.00 | 0.05 | 0.05 | 88 | 1011.7 |
| 20260902020340 | 16 | 180 | 3.2 | 17.7 | 0.00 | 0.05 | 0.05 | 88 | 1011.6 |
| 20260902015314 | 16 | 274 | 0.0 | 8.0 | 0.00 | 0.05 | 0.05 | 88 | 1011.4 |
| 20260902014801 | 16 | 170 | 0.0 | 24.1 | 0.00 | 0.05 | 0.05 | 88 | 1011.3 |
| 20260902014248 | 16 | 280 | 0.0 | 24.1 | 0.00 | 0.05 | 0.05 | 88 | 1011.3 |
| 20260902013737 | 16 | 273 | 4.8 | 24.1 | 0.00 | 0.05 | 0.05 | 88 | 1011.2 |
| 20260902013222 | 16 | 190 | 3.2 | 14.5 | 0.00 | 0.05 | 0.05 | 88 | 1011.3 |
| 20260902012709 | 16 | 190 | 0.0 | 20.9 | 0.00 | 0.05 | 0.05 | 89 | 1011.2 |
| 20260902011643 | 16 | 225 | 8.0 | 20.9 | 0.00 | 0.05 | 0.05 | 89 | 1011.3 |
| 20260902011130 | 16 | 274 | 8.0 | 12.9 | 0.00 | 0.05 | 0.05 | 89 | 1011.4 |
| 20260902010617 | 16 | 298 | 8.0 | 19.3 | 0.00 | 0.05 | 0.05 | 89 | 1011.4 |
| 20260902005551 | 15 | 348 | 1.6 | 19.3 | 0.00 | 0.05 | 0.05 | 89 | 1011.4 |
| 20260902005038 | 16 | 0 | 0.0 | 24.1 | 0.00 | 0.05 | 0.05 | 89 | 1011.4 |
| 20260902004525 | 15 | 296 | 3.2 | 24.1 | 0.00 | 0.05 | 0.05 | 89 | 1011.4 |
| 20260902004012 | 16 | 259 | 8.0 | 24.1 | 0.00 | 0.05 | 0.05 | 89 | 1011.4 |
| 20260902003459 | 16 | 0 | 4.8 | 19.3 | 0.00 | 0.05 | 0.05 | 89 | 1011.4 |
| 20260902002946 | 16 | 252 | 4.8 | 17.7 | 0.00 | 0.05 | 0.05 | 89 | 1011.5 |
| 20260902001920 | 15 | 285 | 0.0 | 17.7 | 0.00 | 0.05 | 0.05 | 89 | 1011.5 |
| 20260902001407 | 16 | 256 | 9.7 | 17.7 | 0.00 | 0.05 | 0.05 | 89 | 1011.6 |
| 20260902000854 | 16 | 233 | 0.0 | 17.7 | 0.00 | 0.05 | 0.05 | 89 | 1011.5 |
| 20260902000341 | 16 | 260 | 1.6 | 17.7 | 0.00 | 0.05 | 0.05 | 89 | 1011.6 |
| 20260901235315 | 15 | 306 | 4.8 | 12.9 | 0.00 | 0.05 | 0.05 | 89 | 1011.8 |
| 20260901234802 | 15 | 267 | 1.6 | 9.7 | 0.00 | 0.05 | 0.05 | 89 | 1011.8 |
| 20260901234249 | 15 | 280 | 6.4 | 17.7 | 0.00 | 0.05 | 0.05 | 88 | 1011.8 |
| 20260901233223 | 16 | 253 | 3.2 | 17.7 | 0.00 | 0.05 | 0.05 | 89 | 1011.9 |
| 20260901232710 | 16 | 271 | 0.0 | 16.1 | 0.00 | 0.05 | 0.05 | 89 | 1012.0 |
| 20260901232157 | 15 | 261 | 0.0 | 16.1 | 0.00 | 0.05 | 0.05 | 89 | 1011.9 |
| 20260901231644 | 15 | 250 | 4.8 | 14.5 | 0.00 | 0.05 | 0.05 | 88 | 1012.0 |
| 20260901231130 | 15 | 0 | 0.0 | 20.9 | 0.00 | 0.05 | 0.05 | 89 | 1012.0 |
| 20260901230618 | 15 | 134 | 3.2 | 20.9 | 0.00 | 0.05 | 0.05 | 88 | 1012.1 |
| 20260901230106 | 16 | 232 | 3.2 | 20.9 | 0.00 | 0.05 | 0.05 | 88 | 1012.1 |
| 20260901225552 | 15 | 196 | 0.0 | 16.1 | 0.00 | 0.05 | 0.05 | 88 | 1012.1 |
| 20260901225038 | 16 | 0 | 0.0 | 16.1 | 0.00 | 0.05 | 0.05 | 89 | 1012.2 |
| 20260901224525 | 16 | 0 | 4.8 | 19.3 | 0.00 | 0.05 | 0.05 | 88 | 1012.2 |
| 20260901224012 | 16 | 301 | 0.0 | 19.3 | 0.00 | 0.05 | 0.05 | 88 | 1012.2 |
| 20260901223459 | 16 | 0 | 1.6 | 19.3 | 0.00 | 0.05 | 0.05 | 88 | 1012.1 |
| 20260901222947 | 16 | 222 | 4.8 | 17.7 | 0.00 | 0.05 | 0.05 | 88 | 1012.1 |
| 20260901222433 | 16 | 273 | 3.2 | 17.7 | 0.00 | 0.05 | 0.05 | 87 | 1012.1 |
| 20260901221920 | 16 | 250 | 4.8 | 12.9 | 0.00 | 0.05 | 0.05 | 87 | 1012.2 |
| 20260901221408 | 16 | 294 | 8.0 | 19.3 | 0.00 | 0.05 | 0.05 | 87 | 1012.1 |
| 20260901220854 | 16 | 249 | 6.4 | 19.3 | 0.00 | 0.05 | 0.05 | 87 | 1012.1 |
| 20260901215828 | 16 | 177 | 6.4 | 17.7 | 0.00 | 0.05 | 0.05 | 87 | 1012.1 |
| 20260901214802 | 16 | 322 | 0.0 | 17.7 | 0.00 | 0.05 | 0.05 | 88 | 1012.0 |
| 20260901214249 | 16 | 217 | 9.7 | 17.7 | 0.00 | 0.05 | 0.05 | 87 | 1012.0 |
| 20260901213736 | 16 | 260 | 3.2 | 17.7 | 0.00 | 0.05 | 0.05 | 88 | 1012.0 |
| 20260901213223 | 16 | 242 | 0.0 | 20.9 | 0.00 | 0.05 | 0.05 | 88 | 1011.9 |
| 20260901212710 | 16 | 263 | 8.0 | 20.9 | 0.00 | 0.05 | 0.05 | 88 | 1011.9 |
| 20260901212157 | 16 | 250 | 9.7 | 20.9 | 0.00 | 0.05 | 0.05 | 88 | 1011.9 |
| 20260901211644 | 16 | 309 | 6.4 | 19.3 | 0.00 | 0.05 | 0.05 | 88 | 1011.8 |
| 20260901211131 | 17 | 190 | 4.8 | 19.3 | 0.00 | 0.05 | 0.05 | 88 | 1011.9 |
| 20260901210618 | 16 | 266 | 1.6 | 17.7 | 0.00 | 0.05 | 0.05 | 88 | 1011.9 |
| 20260901210105 | 16 | 257 | 6.4 | 17.7 | 0.00 | 0.05 | 0.05 | 88 | 1011.9 |
| 20260901205039 | 16 | 256 | 6.4 | 11.3 | 0.00 | 0.05 | 0.05 | 88 | 1011.8 |
| 20260901204526 | 16 | 0 | 0.0 | 11.3 | 0.00 | 0.05 | 0.05 | 89 | 1011.8 |
| 20260901204013 | 16 | 266 | 9.7 | 17.7 | 0.00 | 0.05 | 0.05 | 88 | 1011.9 |
| 20260901203500 | 16 | 253 | 1.6 | 17.7 | 0.00 | 0.05 | 0.05 | 89 | 1012.0 |
| 20260901202947 | 16 | 208 | 3.2 | 17.7 | 0.00 | 0.05 | 0.05 | 89 | 1012.0 |
| 20260901202434 | 16 | 270 | 0.0 | 16.1 | 0.00 | 0.05 | 0.05 | 89 | 1012.0 |
| 20260901201921 | 15 | 271 | 6.4 | 17.7 | 0.00 | 0.05 | 0.05 | 89 | 1012.0 |
| 20260901201408 | 16 | 263 | 9.7 | 17.7 | 0.00 | 0.05 | 0.05 | 89 | 1012.0 |
| 20260901200855 | 16 | 268 | 1.6 | 17.7 | 0.00 | 0.05 | 0.05 | 89 | 1011.9 |
| 20260901200342 | 16 | 254 | 4.8 | 17.7 | 0.00 | 0.05 | 0.05 | 90 | 1012.0 |
| 20260901195830 | 16 | 282 | 8.0 | 17.7 | 0.00 | 0.05 | 0.05 | 90 | 1011.9 |
| 20260901195316 | 15 | 268 | 6.4 | 17.7 | 0.00 | 0.05 | 0.05 | 91 | 1011.9 |
| 20260901194804 | 15 | 159 | 3.2 | 17.7 | 0.03 | 0.05 | 0.05 | 91 | 1012.0 |
| 20260901194250 | 15 | 190 | 1.6 | 17.7 | 0.03 | 0.05 | 0.05 | 91 | 1012.0 |
| 20260901193737 | 15 | 246 | 0.0 | 17.7 | 0.03 | 0.05 | 0.05 | 91 | 1012.1 |
| 20260901192711 | 15 | 247 | 1.6 | 12.9 | 0.03 | 0.05 | 0.05 | 91 | 1012.1 |
| 20260901192158 | 15 | 246 | 4.8 | 8.0 | 0.03 | 0.05 | 0.05 | 91 | 1012.2 |
| 20260901191645 | 15 | 0 | 0.0 | 16.1 | 0.03 | 0.05 | 0.05 | 91 | 1012.2 |
| 20260901190619 | 15 | 281 | 6.4 | 12.9 | 0.03 | 0.05 | 0.05 | 92 | 1012.2 |
| 20260901190106 | 15 | 285 | 3.2 | 9.7 | 0.03 | 0.05 | 0.05 | 91 | 1012.2 |
| 20260901185040 | 15 | 246 | 11.3 | 17.7 | 0.03 | 0.05 | 0.05 | 92 | 1012.3 |
| 20260901184527 | 15 | 273 | 8.0 | 17.7 | 0.00 | 0.05 | 0.05 | 92 | 1012.2 |
| 20260901184014 | 14 | 0 | 4.8 | 14.5 | 0.00 | 0.03 | 0.03 | 92 | 1012.3 |
| 20260901183501 | 14 | 0 | 1.6 | 14.5 | 0.00 | 0.03 | 0.03 | 92 | 1012.3 |
| 20260901182949 | 14 | 249 | 3.2 | 14.5 | 0.00 | 0.03 | 0.03 | 92 | 1012.3 |
| 20260901182435 | 15 | 250 | 1.6 | 14.5 | 0.00 | 0.03 | 0.03 | 92 | 1012.3 |
| 20260901181922 | 15 | 229 | 6.4 | 11.3 | 0.00 | 0.03 | 0.03 | 92 | 1012.3 |
| 20260901181409 | 15 | 275 | 6.4 | 12.9 | 0.00 | 0.03 | 0.03 | 92 | 1012.2 |
| 20260901180856 | 15 | 259 | 0.0 | 12.9 | 0.00 | 0.03 | 0.03 | 92 | 1012.2 |
| 20260901180343 | 15 | 299 | 8.0 | 12.9 | 0.00 | 0.03 | 0.03 | 92 | 1012.2 |
| 20260901175830 | 15 | 284 | 6.4 | 12.9 | 0.00 | 0.03 | 0.03 | 92 | 1012.1 |
| 20260901175317 | 15 | 291 | 4.8 | 12.9 | 0.00 | 0.03 | 0.03 | 92 | 1012.1 |
| 20260901174804 | 15 | 291 | 6.4 | 12.9 | 0.00 | 0.03 | 0.03 | 92 | 1012.1 |
| 20260901174251 | 15 | 240 | 0.0 | 12.9 | 0.00 | 0.03 | 0.03 | 93 | 1012.2 |
| 20260901173738 | 15 | 263 | 1.6 | 11.3 | 0.00 | 0.03 | 0.03 | 93 | 1012.2 |
| 20260901173225 | 15 | 263 | 0.0 | 8.0 | 0.00 | 0.03 | 0.03 | 93 | 1012.2 |
| 20260901172712 | 15 | 317 | 1.6 | 8.0 | 0.00 | 0.03 | 0.03 | 93 | 1012.3 |
| 20260901172159 | 15 | 257 | 1.6 | 8.0 | 0.00 | 0.03 | 0.03 | 93 | 1012.2 |
| 20260901171646 | 15 | 0 | 0.0 | 4.8 | 0.00 | 0.03 | 0.03 | 93 | 1012.2 |
| 20260901171133 | 15 | 0 | 0.0 | 0.0 | 0.00 | 0.03 | 0.03 | 93 | 1012.2 |
| 20260901170620 | 14 | 0 | 0.0 | 0.0 | 0.00 | 0.03 | 0.03 | 93 | 1012.2 |
| 20260901170107 | 14 | 0 | 0.0 | 0.0 | 0.00 | 0.03 | 0.03 | 94 | 1012.3 |
| 20260901165555 | 13 | 0 | 0.0 | 0.0 | 0.00 | 0.03 | 0.03 | 94 | 1012.2 |
| 20260901165041 | 13 | 0 | 0.0 | 0.0 | 0.00 | 0.03 | 0.03 | 94 | 1012.2 |
| 20260901164528 | 13 | 0 | 0.0 | 0.0 | 0.00 | 0.03 | 0.03 | 94 | 1012.2 |
| 20260901164015 | 13 | 0 | 0.0 | 0.0 | 0.00 | 0.03 | 0.03 | 94 | 1012.2 |
| 20260901163502 | 13 | 0 | 0.0 | 6.4 | 0.00 | 0.03 | 0.03 | 94 | 1012.3 |
| 20260901162949 | 13 | 0 | 0.0 | 6.4 | 0.00 | 0.03 | 0.03 | 94 | 1012.3 |
| 20260901162436 | 13 | 231 | 0.0 | 6.4 | 0.00 | 0.03 | 0.03 | 94 | 1012.3 |
| 20260901161923 | 13 | 0 | 0.0 | 0.0 | 0.00 | 0.03 | 0.03 | 94 | 1012.3 |
| 20260901161410 | 13 | 0 | 0.0 | 0.0 | 0.00 | 0.03 | 0.03 | 94 | 1012.3 |
| 20260901160857 | 13 | 0 | 0.0 | 0.0 | 0.00 | 0.03 | 0.03 | 94 | 1012.4 |
| 20260901160344 | 13 | 0 | 0.0 | 0.0 | 0.00 | 0.03 | 0.03 | 94 | 1012.3 |
| 20260901155831 | 13 | 0 | 0.0 | 0.0 | 0.00 | 0.03 | 0.03 | 94 | 1012.3 |
| 20260901155317 | 13 | 0 | 0.0 | 6.4 | 0.00 | 0.03 | 0.03 | 94 | 1012.3 |
| 20260901154805 | 13 | 0 | 0.0 | 6.4 | 0.00 | 0.03 | 0.03 | 94 | 1012.4 |
| 20260901154252 | 13 | 254 | 0.0 | 6.4 | 0.00 | 0.03 | 0.03 | 94 | 1012.4 |
| 20260901153225 | 13 | 189 | 0.0 | 4.8 | 0.00 | 0.03 | 0.03 | 94 | 1012.3 |
| 20260901152712 | 13 | 0 | 0.0 | 0.0 | 0.00 | 0.03 | 0.03 | 94 | 1012.3 |
| 20260901151646 | 13 | 0 | 0.0 | 0.0 | 0.00 | 0.03 | 0.03 | 94 | 1012.4 |
| 20260901151133 | 13 | 0 | 0.0 | 0.0 | 0.00 | 0.03 | 0.03 | 94 | 1012.3 |
| 20260901150620 | 12 | 0 | 0.0 | 0.0 | 0.00 | 0.03 | 0.03 | 94 | 1012.3 |
| 20260901150107 | 13 | 0 | 0.0 | 0.0 | 0.00 | 0.03 | 0.03 | 94 | 1012.3 |
| 20260901145554 | 13 | 0 | 0.0 | 0.0 | 0.00 | 0.03 | 0.03 | 94 | 1012.3 |
| 20260901145041 | 13 | 0 | 0.0 | 0.0 | 0.00 | 0.03 | 0.03 | 94 | 1012.3 |
| 20260901144015 | 13 | 0 | 0.0 | 0.0 | 0.00 | 0.03 | 0.03 | 94 | 1012.2 |
| 20260901143502 | 13 | 0 | 0.0 | 0.0 | 0.00 | 0.03 | 0.03 | 94 | 1012.1 |
| 20260901142950 | 13 | 0 | 0.0 | 0.0 | 0.00 | 0.03 | 0.03 | 94 | 1012.1 |
| 20260901142436 | 13 | 0 | 0.0 | 0.0 | 0.00 | 0.03 | 0.03 | 94 | 1012.1 |
| 20260901141923 | 13 | 0 | 0.0 | 0.0 | 0.00 | 0.03 | 0.03 | 94 | 1012.0 |
| 20260901141410 | 12 | 0 | 0.0 | 0.0 | 0.00 | 0.03 | 0.03 | 94 | 1012.0 |
| 20260901140857 | 12 | 0 | 0.0 | 0.0 | 0.00 | 0.03 | 0.03 | 94 | 1012.0 |
| 20260901140344 | 13 | 0 | 0.0 | 0.0 | 0.00 | 0.03 | 0.03 | 94 | 1012.0 |
| 20260901135318 | 13 | 0 | 0.0 | 0.0 | 0.00 | 0.03 | 0.03 | 94 | 1011.9 |
| 20260901134805 | 12 | 0 | 0.0 | 0.0 | 0.00 | 0.03 | 0.03 | 94 | 1011.8 |
| 20260901134252 | 12 | 0 | 0.0 | 0.0 | 0.00 | 0.03 | 0.03 | 94 | 1011.7 |
| 20260901133739 | 13 | 0 | 0.0 | 0.0 | 0.00 | 0.03 | 0.03 | 94 | 1011.7 |
| 20260901132713 | 12 | 0 | 0.0 | 0.0 | 0.00 | 0.03 | 0.03 | 94 | 1011.6 |
| 20260901132200 | 12 | 0 | 0.0 | 0.0 | 0.00 | 0.03 | 0.03 | 94 | 1011.6 |
| 20260901131647 | 13 | 189 | 0.0 | 8.0 | 0.00 | 0.03 | 0.03 | 94 | 1011.6 |
| 20260901131134 | 13 | 0 | 0.0 | 8.0 | 0.00 | 0.03 | 0.03 | 94 | 1011.5 |
| 20260901130621 | 12 | 211 | 0.0 | 8.0 | 0.00 | 0.03 | 0.03 | 94 | 1011.6 |
| 20260901130108 | 12 | 0 | 0.0 | 0.0 | 0.00 | 0.03 | 0.03 | 94 | 1011.5 |
| 20260901125042 | 12 | 0 | 0.0 | 0.0 | 0.00 | 0.03 | 0.03 | 94 | 1011.6 |
| 20260901124529 | 13 | 0 | 0.0 | 0.0 | 0.00 | 0.03 | 0.03 | 94 | 1011.5 |
| 20260901124016 | 13 | 0 | 0.0 | 4.8 | 0.00 | 0.03 | 0.03 | 94 | 1011.5 |
| 20260901123503 | 12 | 0 | 0.0 | 4.8 | 0.00 | 0.03 | 0.03 | 94 | 1011.5 |
| 20260901122950 | 13 | 0 | 0.0 | 4.8 | 0.00 | 0.03 | 0.03 | 94 | 1011.5 |
| 20260901122437 | 13 | 0 | 0.0 | 0.0 | 0.00 | 0.03 | 0.03 | 94 | 1011.5 |
| 20260901121924 | 13 | 238 | 0.0 | 8.0 | 0.03 | 0.03 | 0.03 | 94 | 1011.5 |
| 20260901121411 | 13 | 238 | 0.0 | 8.0 | 0.03 | 0.03 | 0.03 | 94 | 1011.6 |
| 20260901120858 | 13 | 205 | 0.0 | 8.0 | 0.03 | 0.03 | 0.03 | 94 | 1011.6 |
| 20260901120345 | 13 | 0 | 0.0 | 0.0 | 0.03 | 0.03 | 0.03 | 94 | 1011.5 |
| 20260901115832 | 12 | 0 | 0.0 | 0.0 | 0.03 | 0.03 | 0.03 | 93 | 1011.5 |
| 20260901115319 | 13 | 0 | 0.0 | 0.0 | 0.03 | 0.03 | 0.03 | 93 | 1011.5 |
| 20260901114806 | 13 | 158 | 3.2 | 16.1 | 0.03 | 0.03 | 0.03 | 93 | 1011.5 |
| 20260901114253 | 13 | 0 | 0.0 | 16.1 | 0.03 | 0.03 | 0.03 | 93 | 1011.5 |
| 20260901113228 | 13 | 0 | 0.0 | 12.9 | 0.03 | 0.03 | 0.03 | 93 | 1011.5 |
| 20260901112714 | 13 | 254 | 0.0 | 12.9 | 0.03 | 0.03 | 0.03 | 93 | 1011.6 |
| 20260901112201 | 13 | 0 | 0.0 | 12.9 | 0.03 | 0.03 | 0.03 | 93 | 1011.6 |
| 20260901111648 | 13 | 0 | 0.0 | 6.4 | 0.00 | 0.00 | 0.00 | 93 | 1011.6 |
| 20260901111135 | 13 | 0 | 0.0 | 0.0 | 0.00 | 0.00 | 0.00 | 93 | 1011.5 |
| 20260901110622 | 13 | 0 | 0.0 | 9.7 | 0.00 | 0.00 | 0.00 | 93 | 1011.5 |
| 20260901110109 | 13 | 0 | 0.0 | 9.7 | 0.00 | 0.00 | 0.00 | 93 | 1011.5 |
| 20260901105557 | 13 | 177 | 1.6 | 9.7 | 0.00 | 0.00 | 0.00 | 93 | 1011.6 |
| 20260901105043 | 13 | 0 | 0.0 | 8.0 | 0.00 | 0.00 | 0.00 | 93 | 1011.5 |
| 20260901104017 | 13 | 0 | 0.0 | 8.0 | 0.00 | 0.00 | 0.00 | 93 | 1011.6 |
| 20260901103504 | 13 | 0 | 0.0 | 6.4 | 0.00 | 0.00 | 0.00 | 93 | 1011.6 |
| 20260901102951 | 13 | 0 | 0.0 | 0.0 | 0.00 | 0.00 | 0.00 | 93 | 1011.6 |
| 20260901102438 | 13 | 0 | 0.0 | 12.9 | 0.00 | 0.00 | 0.00 | 93 | 1011.5 |
| 20260901101925 | 13 | 0 | 0.0 | 12.9 | 0.00 | 0.00 | 0.00 | 93 | 1011.5 |
| 20260901101412 | 13 | 319 | 0.0 | 12.9 | 0.00 | 0.00 | 0.00 | 93 | 1011.5 |
| 20260901100859 | 13 | 176 | 0.0 | 9.7 | 0.00 | 0.00 | 0.00 | 92 | 1011.5 |
| 20260901100346 | 13 | 161 | 3.2 | 9.7 | 0.00 | 0.00 | 0.00 | 92 | 1011.4 |
| 20260901095834 | 13 | 228 | 0.0 | 4.8 | 0.00 | 0.00 | 0.00 | 92 | 1011.5 |
| 20260901095320 | 13 | 0 | 0.0 | 12.9 | 0.00 | 0.00 | 0.00 | 92 | 1011.5 |
| 20260901094807 | 13 | 0 | 0.0 | 12.9 | 0.00 | 0.00 | 0.00 | 92 | 1011.5 |
| 20260901094254 | 14 | 232 | 0.0 | 12.9 | 0.00 | 0.00 | 0.00 | 92 | 1011.5 |
| 20260901093742 | 13 | 215 | 1.6 | 11.3 | 0.00 | 0.00 | 0.00 | 92 | 1011.6 |
| 20260901092202 | 13 | 152 | 0.0 | 12.9 | 0.00 | 0.00 | 0.00 | 92 | 1011.5 |
| 20260901091649 | 13 | 254 | 0.0 | 12.9 | 0.00 | 0.00 | 0.00 | 92 | 1011.6 |
| 20260901091136 | 13 | 176 | 3.2 | 11.3 | 0.00 | 0.00 | 0.00 | 92 | 1011.5 |
| 20260901090110 | 13 | 0 | 0.0 | 11.3 | 0.00 | 0.00 | 0.00 | 92 | 1011.5 |
| 20260901085557 | 13 | 305 | 1.6 | 9.7 | 0.00 | 0.00 | 0.00 | 92 | 1011.4 |
| 20260901085044 | 13 | 235 | 0.0 | 14.5 | 0.00 | 0.00 | 0.00 | 92 | 1011.4 |
| 20260901084531 | 13 | 0 | 0.0 | 14.5 | 0.00 | 0.00 | 0.00 | 92 | 1011.4 |
| 20260901084018 | 13 | 281 | 0.0 | 14.5 | 0.00 | 0.00 | 0.00 | 92 | 1011.5 |
| 20260901083505 | 13 | 249 | 1.6 | 11.3 | 0.00 | 0.00 | 0.00 | 92 | 1011.5 |
| 20260901082952 | 13 | 0 | 1.6 | 11.3 | 0.00 | 0.00 | 0.00 | 92 | 1011.5 |
| 20260901082439 | 13 | 0 | 0.0 | 11.3 | 0.00 | 0.00 | 0.00 | 92 | 1011.6 |
| 20260901081926 | 13 | 246 | 0.0 | 9.7 | 0.00 | 0.00 | 0.00 | 92 | 1011.5 |
| 20260901081413 | 13 | 243 | 0.0 | 11.3 | 0.00 | 0.00 | 0.00 | 92 | 1011.5 |
| 20260901080900 | 13 | 0 | 0.0 | 11.3 | 0.00 | 0.00 | 0.00 | 92 | 1011.4 |
| 20260901080347 | 14 | 245 | 4.8 | 11.3 | 0.00 | 0.00 | 0.00 | 92 | 1011.4 |
| 20260901075835 | 13 | 274 | 0.0 | 3.2 | 0.00 | 0.00 | 0.00 | 92 | 1011.3 |
| 20260901075321 | 13 | 0 | 0.0 | 0.0 | 0.00 | 0.00 | 0.00 | 92 | 1011.3 |
| 20260901074808 | 13 | 0 | 0.0 | 9.7 | 0.00 | 0.00 | 0.00 | 92 | 1011.2 |
| 20260901074255 | 13 | 274 | 0.0 | 9.7 | 0.00 | 0.00 | 0.00 | 92 | 1011.2 |
| 20260901073742 | 13 | 0 | 0.0 | 9.7 | 0.00 | 0.00 | 0.00 | 92 | 1011.2 |
| 20260901072716 | 14 | 0 | 0.0 | 4.8 | 0.00 | 0.00 | 0.00 | 92 | 1011.3 |
| 20260901072203 | 13 | 0 | 0.0 | 4.8 | 0.00 | 0.00 | 0.00 | 92 | 1011.2 |
| 20260901071650 | 13 | 0 | 0.0 | 4.8 | 0.00 | 0.00 | 0.00 | 92 | 1011.3 |
| 20260901071137 | 13 | 0 | 0.0 | 4.8 | 0.00 | 0.00 | 0.00 | 92 | 1011.3 |
| 20260901070624 | 14 | 0 | 0.0 | 4.8 | 0.00 | 0.00 | 0.00 | 92 | 1011.2 |
| 20260901070111 | 13 | 0 | 0.0 | 0.0 | 0.00 | 0.00 | 0.00 | 92 | 1011.2 |
| 20260901065558 | 13 | 0 | 0.0 | 0.0 | 0.00 | 0.00 | 0.00 | 92 | 1011.3 |
| 20260901065045 | 13 | 0 | 0.0 | 0.0 | 0.00 | 0.00 | 0.00 | 92 | 1011.2 |
| 20260901064532 | 13 | 0 | 0.0 | 0.0 | 0.00 | 0.00 | 0.00 | 92 | 1011.2 |
| 20260901064019 | 14 | 0 | 0.0 | 0.0 | 0.00 | 0.00 | 0.00 | 92 | 1011.3 |
| 20260901063506 | 13 | 0 | 0.0 | 6.4 | 0.00 | 0.00 | 0.00 | 92 | 1011.3 |
| 20260901062953 | 14 | 0 | 0.0 | 6.4 | 0.00 | 0.00 | 0.00 | 92 | 1011.2 |
| 20260901062440 | 13 | 0 | 0.0 | 6.4 | 0.00 | 0.00 | 0.00 | 92 | 1011.3 |
| 20260901061927 | 13 | 268 | 0.0 | 1.6 | 0.00 | 0.00 | 0.00 | 92 | 1011.3 |
| 20260901061414 | 13 | 0 | 0.0 | 0.0 | 0.00 | 0.00 | 0.00 | 92 | 1011.3 |
| 20260901060901 | 13 | 0 | 0.0 | 0.0 | 0.00 | 0.00 | 0.00 | 92 | 1011.4 |
| 20260901060348 | 13 | 0 | 0.0 | 8.0 | 0.00 | 0.00 | 0.00 | 92 | 1011.4 |
| 20260901055835 | 13 | 0 | 0.0 | 8.0 | 0.00 | 0.00 | 0.00 | 92 | 1011.4 |
| 20260901055322 | 13 | 302 | 0.0 | 8.0 | 0.00 | 0.00 | 0.00 | 92 | 1011.5 |
| 20260901054809 | 13 | 0 | 0.0 | 4.8 | 0.00 | 0.00 | 0.00 | 92 | 1011.6 |
| 20260901054256 | 13 | 0 | 0.0 | 4.8 | 0.00 | 0.00 | 0.00 | 92 | 1011.6 |